User: anonymous   Login
Location: Cheching
(60.0667°N, 164.2167°W)
Time: 17:47:01
(UTC+00:00)
Language:

UNISAT 6 - Orbit

View from above orbital plane
View from above orbital plane
View from above satellite
View from above satellite

Ground track
Ground track

The orbit data is extracted from the following two-line orbital elements,

1 40012U 14033C   21129.27185162  .00000192  00000-0  35628-4 0  9995
2 40012  97.6796 333.7466 0058867  28.3864 332.0531 14.74296041370421
Epoch (UTC): 09 May 2021 06:31:27
Eccentricity: 0.0058867
inclination: 97.6796°
perigee height: 606 km
apogee height: 689 km
right ascension of ascending node: 333.7466°
argument of perigee: 28.3864°
revolutions per day: 14.74296041
mean anomaly at epoch: 332.0531°
orbit number at epoch: 37042

The dashed part of the orbit path shows where the satellite is in the earth's shadow,  

DLR